Regional Weather Roundup
Issued by NWS Cleveland, OH

Home | Current Version | Previous Version | Text Only | Print | Product List | Glossary Off
Versions: 1 2 3 4 5 6 7 8 9 10 11 12 13 14 15 16 17 18 19 20 21 22 23 24 25 26 27 28 29 30 31 32 33 34 35 36 37 38 39 40 41 42 43 44 45 46 47 48 49 50

000
ASUS41 KCLE 222110
RWRCLE
OHIO REGIONAL WEATHER ROUNDUP
NATIONAL WEATHER SERVICE WILMINGTON, OH
400 PM EST MON DEC 22 2014

NOTE: "FAIR" INDICATES FEW OR NO CLOUDS BELOW 12,000 FEET WITH NO
SIGNIFICANT WEATHER AND/OR OBSTRUCTIONS TO VISIBILITY.

OHZ001>008-015>018-024>027-034-035-043-044-222200-
   NORTHWEST OHIO

CITY           SKY/WX    TMP DP  RH WIND       PRES   REMARKS
DEFIANCE       CLOUDY    38  32  79 E9        29.89F
FINDLAY        CLOUDY    41  33  73 E9        29.88F
TOLEDO EXPRESS CLOUDY    37  29  72 E9        29.91F
TOLEDO METCALF MOCLDY    37  29  72 NE8       29.93F
LIMA           CLOUDY    42  33  70 E9        29.86F HAZE
$$

OHZ009>014-019>023-028>033-038-089-222200-
   NORTHEAST OHIO

CITY           SKY/WX    TMP DP  RH WIND       PRES   REMARKS
CLE-HOPKINS    MOCLDY    44  32  62 E9        29.98F
CLE-LAKEFRONT  MOCLDY    45  31  58 SE8       29.97F
CUY CO. ARPT   MOCLDY    45  34  65 SE10      29.99R
LORAIN-ELYRIA  PTCLDY    42  33  70 SE9       29.95F
ASHTABULA      FAIR      40  29  64 SE8       30.01S
AKRON-CANTON   MOCLDY    42  32  67 E7        29.96S
WOOSTER        MOCLDY    40  33  76 SE7       29.95F
MANSFIELD      PTCLDY    40  32  73 E9        29.91F
YOUNGSTOWN     MOCLDY    39  29  67 SE8       29.99S
$$

OHZ042-051>053-060>062-070>072-077>081-222200-
  SOUTHWEST OHIO

CITY           SKY/WX    TMP DP  RH WIND       PRES   REMARKS
CINC-COVINGTON CLOUDY    50  36  58 E10       29.81F
CINC-LUNKEN    CLOUDY    50  39  66 E8        29.84F
HAMILTON       CLOUDY    50  39  66 E9        29.83F
DAYTON         CLOUDY    46  37  71 E14       29.84F
WRIGHT-PAT AFB CLOUDY    45  37  72 E8        29.85F
DAYTON GENERAL CLOUDY    47  37  68 E8        29.81F
WILMINGTON     CLOUDY    45  36  70 E9        29.84F
$$

OHZ036-037-039>041-045>050-054>059-063>069-073>076-082>088-222200-
  CENTRAL AND SOUTHEAST OHIO

CITY           SKY/WX    TMP DP  RH WIND       PRES   REMARKS
COLUMBUS       CLOUDY    45  35  68 E9        29.90F
OSU AIRPORT    CLOUDY    46  35  65 SE10      29.89F
BOLTON FIELD   CLOUDY    45  36  70 E7        29.89F
RICKENBACK AFB CLOUDY    46  36  67 E5        29.90S
NEWARK         MOCLDY    46  34  62 NE5       29.91F
MARION         MOCLDY    45  35  68 SE9       29.89F
LANCASTER      CLOUDY    62  37  39 E6        29.91F
ZANESVILLE     PTCLDY    47  34  60 E5        29.93F
NEW PHILLY     PTCLDY    46  33  60 NE3       29.97S
$$


USA.gov is the U.S. government's official web portal to all federal, state and local government web resources and services.